Contact Us:
Email: info@sawbill.com
Phone: (218)663-7150
Fax: (218)663-7980
Mail: 4620 Sawbill Trail
Box 2129
Tofte, MN 55615


Powered by
Movable Type 3.15
 
Sawbill Weather History Archives: August 2014
Current Sawbill Weather History | « July 2014 | September 2014 »


Date

High
Temperature

Low
Temperature

Barometric
Pressure

Relative
Humidity 7AM

9 AM
Temperature

Moisture

Snow

8/31/14 63 53 29.72 98% 61 .65"
8/30/14 63 53 29.94 93% 53 .02"
8/29/14 59 56 29.88 98% 58 .93"
8/28/14 68 48 29.96 85% 56 0
8/27/14 64 48 30.10 76% 48 0
8/26/14 61 48 30.10 79% 48 .01"
8/25/14 76 51 30.00 76% 51 .02"
8/24/14 72 62 29.92 98% 64 .02"
8/23/14 69 62 30.00 98% 63 .02"
8/22/14 67 61 30.06 95% 62 .02"
8/21/14 67 59 30.00 97% 61 .02"
8/20/14 67 59 30.00 97% 59 Trace
8/19/14 63 56 29.92 96% 59 Trace
8/18/14 60 56 29.82 98% 56 .63"
8/17/14 64 53 29.90 94% 56 .03"
8/16/14 71 53 30.03 80% 53 .02"
8/15/14 77 58 29.93 90% 64 .16"
8/14/14 67 47 30.01 91% 55 0
8/13/14 65 43 30.12 79% 58 .02"
8/12/14 70 54 30.04 86% 55 0
8/11/14 65 53 30.00 96% 54 .03"
8/10/14 74 54 30.02 98% 60 1.1"
8/9/14 76 54 30.10 73% 54 0
8/8/14 76 50 30.14 83% 61 0
8/7/14 76 50 30.08 90% 55 0
8/6/14 73 50 30.12 73% 50 0
8/5/14 73 50 30.10 87% 51 .21"
8/4/14 69 49 30.10 75% 50 0
8/3/14 72 52 30.10 88% 55 .17"
8/2/14 76 48 30.10 87% 62 0
8/1/14 77 47 30.04 76% 57 0
 


Home I Trip Planning I Rentals and Outfitting I Reservations I Campgrounds I Sawbill Store I Sawbill News I Contact

© 1997 - 2017, Sawbill Canoe Outfitters, Inc. I Privacy Policy